Time,TemperatureF,DewpointF,PressureIn,WindDirection,WindDirectionDegrees,WindSpeedMPH,WindSpeedGustMPH,Humidity,HourlyPrecipIn,Conditions,Clouds,dailyrainin,SoftwareType,DateUTC
2013-02-06 00:05:00,53.5,46.8,29.98,South,184,0.0,0.0,78,0.00,,---,0.00,VWS V12.07,2013-02-06 08:05:00,
2013-02-06 00:10:00,53.5,46.8,29.98,South,184,0.0,1.0,78,0.00,,---,0.00,VWS V12.07,2013-02-06 08:10:00,
2013-02-06 00:15:00,53.5,46.8,29.98,South,184,0.0,0.0,78,0.00,,---,0.00,VWS V12.07,2013-02-06 08:15:00,
2013-02-06 00:25:00,53.5,46.8,29.98,South,184,0.0,1.0,78,0.00,,---,0.00,VWS V12.07,2013-02-06 08:25:00,
2013-02-06 00:30:00,53.5,46.8,29.98,South,184,0.0,0.0,78,0.00,,---,0.00,VWS V12.07,2013-02-06 08:30:00,
2013-02-06 00:35:00,53.5,46.8,29.98,South,184,0.0,0.0,78,0.00,,---,0.00,VWS V12.07,2013-02-06 08:35:00,
2013-02-06 00:45:00,53.3,46.6,29.98,South,184,0.0,0.0,78,0.00,,---,0.00,VWS V12.07,2013-02-06 08:45:00,
2013-02-06 00:50:00,53.3,46.6,29.98,South,184,0.0,0.0,78,0.00,,---,0.00,VWS V12.07,2013-02-06 08:50:00,
2013-02-06 00:55:00,53.3,46.6,29.98,South,184,0.0,0.0,78,0.00,,---,0.00,VWS V12.07,2013-02-06 08:55:00,
2013-02-06 01:05:00,53.3,46.3,29.98,South,184,0.0,0.0,77,0.00,,---,0.00,VWS V12.07,2013-02-06 09:05:00,
2013-02-06 01:10:00,53.3,46.3,29.99,South,184,0.0,0.0,77,0.00,,---,0.00,VWS V12.07,2013-02-06 09:10:00,
2013-02-06 01:15:00,53.3,46.3,29.99,South,184,0.0,0.0,77,0.00,,---,0.00,VWS V12.07,2013-02-06 09:15:00,
2013-02-06 01:20:00,53.2,46.2,29.99,South,184,0.0,0.0,77,0.00,,---,0.00,VWS V12.07,2013-02-06 09:20:00,
2013-02-06 01:25:00,53.2,46.2,29.98,South,184,0.0,0.0,77,0.00,,---,0.00,VWS V12.07,2013-02-06 09:25:00,
2013-02-06 01:30:00,53.2,46.2,29.98,South,184,0.0,0.0,77,0.00,,---,0.00,VWS V12.07,2013-02-06 09:30:00,
2013-02-06 01:35:00,53.2,46.2,29.98,South,184,0.0,1.0,77,0.00,,---,0.00,VWS V12.07,2013-02-06 09:35:00,
2013-02-06 01:40:00,53.2,46.2,29.98,South,184,0.0,0.0,77,0.00,,---,0.00,VWS V12.07,2013-02-06 09:40:00,
2013-02-06 01:50:00,53.2,46.2,29.98,South,184,0.0,0.0,77,0.00,,---,0.00,VWS V12.07,2013-02-06 09:50:00,
2013-02-06 02:00:00,53.2,46.2,29.98,South,184,0.0,0.0,77,0.00,,---,0.00,VWS V12.07,2013-02-06 10:00:00,
2013-02-06 02:05:00,53.2,46.2,29.98,South,184,0.0,0.0,77,0.00,,---,0.00,VWS V12.07,2013-02-06 10:05:00,
2013-02-06 02:10:00,53.2,46.2,29.98,South,184,0.0,0.0,77,0.00,,---,0.00,VWS V12.07,2013-02-06 10:10:00,
2013-02-06 02:20:00,53.2,46.2,29.98,South,184,0.0,0.0,77,0.00,,---,0.00,VWS V12.07,2013-02-06 10:20:00,
2013-02-06 02:25:00,53.2,46.2,29.98,South,184,0.0,0.0,77,0.00,,---,0.00,VWS V12.07,2013-02-06 10:25:00,
2013-02-06 02:30:00,53.1,46.1,29.98,South,184,0.0,0.0,77,0.00,,---,0.00,VWS V12.07,2013-02-06 10:30:00,
2013-02-06 02:40:00,53.1,46.1,29.97,South,184,0.0,0.0,77,0.00,,---,0.00,VWS V12.07,2013-02-06 10:40:00,
2013-02-06 02:50:00,53.1,46.1,29.97,South,184,0.0,0.0,77,0.00,,---,0.00,VWS V12.07,2013-02-06 10:50:00,
2013-02-06 02:55:00,53.1,46.1,29.97,South,184,0.0,0.0,77,0.00,,---,0.00,VWS V12.07,2013-02-06 10:55:00,
2013-02-06 03:00:00,53.1,46.1,29.97,South,184,0.0,0.0,77,0.00,,---,0.00,VWS V12.07,2013-02-06 11:00:00,
2013-02-06 03:10:00,53.1,46.1,29.96,South,184,0.0,0.0,77,0.00,,---,0.00,VWS V12.07,2013-02-06 11:10:00,
2013-02-06 03:20:00,53.1,46.1,29.96,South,184,0.0,0.0,77,0.00,,---,0.00,VWS V12.07,2013-02-06 11:20:00,
2013-02-06 03:25:00,53.1,46.1,29.97,South,184,0.0,0.0,77,0.00,,---,0.00,VWS V12.07,2013-02-06 11:25:00,
2013-02-06 03:30:00,53.1,46.1,29.97,South,184,0.0,0.0,77,0.00,,---,0.00,VWS V12.07,2013-02-06 11:30:00,
2013-02-06 03:40:00,53.1,46.1,29.97,South,184,1.0,2.0,77,0.00,,---,0.00,VWS V12.07,2013-02-06 11:40:00,
2013-02-06 03:45:00,53.1,46.1,29.97,South,184,0.0,0.0,77,0.00,,---,0.00,VWS V12.07,2013-02-06 11:45:00,
2013-02-06 03:50:00,53.1,46.1,29.97,South,184,0.0,2.0,77,0.00,,---,0.00,VWS V12.07,2013-02-06 11:50:00,
2013-02-06 04:00:00,53.1,46.1,29.96,South,184,0.0,1.0,77,0.00,,---,0.00,VWS V12.07,2013-02-06 12:00:00,
2013-02-06 04:05:00,53.1,46.1,29.96,South,184,0.0,1.0,77,0.00,,---,0.00,VWS V12.07,2013-02-06 12:05:00,
2013-02-06 04:15:00,53.1,46.1,29.95,South,184,0.0,2.0,77,0.00,,---,0.00,VWS V12.07,2013-02-06 12:15:00,
2013-02-06 04:20:00,53.1,46.1,29.95,ESE,119,0.0,3.0,77,0.00,,---,0.00,VWS V12.07,2013-02-06 12:20:00,
2013-02-06 04:25:00,53.1,46.4,29.95,ESE,120,0.0,2.0,78,0.00,,---,0.00,VWS V12.07,2013-02-06 12:25:00,
2013-02-06 04:30:00,52.9,46.2,29.95,ESE,120,1.0,2.0,78,0.00,,---,0.00,VWS V12.07,2013-02-06 12:30:00,
2013-02-06 04:35:00,52.9,46.2,29.95,ESE,120,0.0,1.0,78,0.00,,---,0.00,VWS V12.07,2013-02-06 12:35:00,
2013-02-06 04:40:00,52.9,46.2,29.96,ESE,120,0.0,2.0,78,0.00,,---,0.00,VWS V12.07,2013-02-06 12:40:00,
2013-02-06 04:45:00,52.9,46.2,29.96,ESE,120,0.0,2.0,78,0.00,,---,0.00,VWS V12.07,2013-02-06 12:45:00,
2013-02-06 04:55:00,52.9,46.2,29.96,ESE,120,0.0,2.0,78,0.00,,---,0.00,VWS V12.07,2013-02-06 12:55:00,
2013-02-06 05:00:00,52.9,46.2,29.96,ESE,120,1.0,2.0,78,0.00,,---,0.00,VWS V12.07,2013-02-06 13:00:00,
2013-02-06 05:05:00,52.8,46.1,29.96,ESE,120,0.0,1.0,78,0.00,,---,0.00,VWS V12.07,2013-02-06 13:05:00,
2013-02-06 05:10:00,52.8,46.1,29.96,ESE,120,0.0,1.0,78,0.00,,---,0.00,VWS V12.07,2013-02-06 13:10:00,
2013-02-06 05:15:00,52.8,46.1,29.96,ESE,120,0.0,0.0,78,0.00,,---,0.00,VWS V12.07,2013-02-06 13:15:00,
2013-02-06 05:25:00,52.8,46.1,29.96,ESE,119,0.0,1.0,78,0.00,,---,0.00,VWS V12.07,2013-02-06 13:25:00,
2013-02-06 05:30:00,52.8,46.1,29.96,ESE,120,0.0,2.0,78,0.00,,---,0.00,VWS V12.07,2013-02-06 13:30:00,
2013-02-06 05:40:00,52.6,46.0,29.97,ESE,117,1.0,5.0,78,0.00,,---,0.00,VWS V12.07,2013-02-06 13:40:00,
2013-02-06 05:45:00,52.6,46.0,29.97,ESE,117,0.0,1.0,78,0.00,,---,0.00,VWS V12.07,2013-02-06 13:45:00,
2013-02-06 05:55:00,52.6,46.0,29.97,ESE,117,0.0,0.0,78,0.00,,---,0.00,VWS V12.07,2013-02-06 13:55:00,
2013-02-06 06:00:00,52.6,46.0,29.97,ESE,117,0.0,0.0,78,0.00,,---,0.00,VWS V12.07,2013-02-06 14:00:00,
2013-02-06 06:05:00,52.6,46.0,29.97,ESE,117,0.0,1.0,78,0.00,,---,0.00,VWS V12.07,2013-02-06 14:05:00,
2013-02-06 06:10:00,52.6,46.0,29.98,ESE,117,0.0,0.0,78,0.00,,---,0.00,VWS V12.07,2013-02-06 14:10:00,
2013-02-06 06:20:00,52.6,46.0,29.98,ESE,117,0.0,0.0,78,0.00,,---,0.00,VWS V12.07,2013-02-06 14:20:00,
2013-02-06 06:25:00,52.6,46.0,29.98,ESE,117,0.0,0.0,78,0.00,,---,0.00,VWS V12.07,2013-02-06 14:25:00,
2013-02-06 06:30:00,52.6,46.0,29.98,ESE,117,0.0,0.0,78,0.00,,---,0.00,VWS V12.07,2013-02-06 14:30:00,
2013-02-06 06:35:00,52.8,46.1,29.98,ESE,117,0.0,0.0,78,0.00,,---,0.00,VWS V12.07,2013-02-06 14:35:00,
2013-02-06 06:45:00,52.8,46.1,29.98,ESE,117,0.0,0.0,78,0.00,,---,0.00,VWS V12.07,2013-02-06 14:45:00,
2013-02-06 06:50:00,52.8,46.1,29.98,ESE,117,0.0,0.0,78,0.00,,---,0.00,VWS V12.07,2013-02-06 14:50:00,
2013-02-06 06:55:00,52.8,46.1,29.98,ESE,117,0.0,0.0,78,0.00,,---,0.00,VWS V12.07,2013-02-06 14:55:00,
2013-02-06 07:00:00,52.8,45.8,29.98,ESE,117,0.0,0.0,77,0.00,,---,0.00,VWS V12.07,2013-02-06 15:00:00,
2013-02-06 07:05:00,52.8,45.8,29.98,ESE,117,0.0,0.0,77,0.00,,---,0.00,VWS V12.07,2013-02-06 15:05:00,
2013-02-06 07:15:00,52.8,46.1,29.98,ESE,117,0.0,0.0,78,0.00,,---,0.00,VWS V12.07,2013-02-06 15:15:00,
2013-02-06 07:20:00,52.8,46.1,29.98,ESE,117,0.0,0.0,78,0.00,,---,0.00,VWS V12.07,2013-02-06 15:20:00,
2013-02-06 07:25:00,52.8,46.1,29.98,ESE,117,0.0,0.0,78,0.00,,---,0.00,VWS V12.07,2013-02-06 15:25:00,
2013-02-06 07:30:00,52.9,46.2,29.98,ESE,117,0.0,0.0,78,0.00,,---,0.00,VWS V12.07,2013-02-06 15:30:00,
2013-02-06 07:35:00,52.9,46.2,29.98,ESE,117,0.0,1.0,78,0.00,,---,0.00,VWS V12.07,2013-02-06 15:35:00,
2013-02-06 07:45:00,52.9,46.2,29.99,ESE,117,0.0,0.0,78,0.00,,---,0.00,VWS V12.07,2013-02-06 15:45:00,
2013-02-06 07:50:00,53.1,46.4,29.99,ESE,117,0.0,0.0,78,0.00,,---,0.00,VWS V12.07,2013-02-06 15:50:00,
2013-02-06 07:55:00,53.1,46.4,29.99,ESE,117,1.0,1.0,78,0.00,,---,0.00,VWS V12.07,2013-02-06 15:55:00,
2013-02-06 08:05:00,53.3,46.6,29.99,ESE,117,0.0,2.0,78,0.00,,---,0.00,VWS V12.07,2013-02-06 16:05:00,
2013-02-06 08:10:00,53.3,46.3,30.00,ESE,117,0.0,0.0,77,0.00,,---,0.00,VWS V12.07,2013-02-06 16:10:00,
2013-02-06 08:15:00,53.5,46.5,30.00,ESE,117,1.0,2.0,77,0.00,,---,0.00,VWS V12.07,2013-02-06 16:15:00,
2013-02-06 08:25:00,53.6,46.6,30.01,ESE,117,0.0,0.0,77,0.00,,---,0.00,VWS V12.07,2013-02-06 16:25:00,
2013-02-06 08:35:00,53.9,46.5,30.01,ESE,117,0.0,1.0,76,0.00,,---,0.00,VWS V12.07,2013-02-06 16:35:00,
2013-02-06 08:40:00,54.1,46.7,30.01,ESE,117,0.0,0.0,76,0.00,,---,0.00,VWS V12.07,2013-02-06 16:40:00,
2013-02-06 08:45:00,54.4,47.0,30.01,ESE,123,0.0,2.0,76,0.00,,---,0.00,VWS V12.07,2013-02-06 16:45:00,
2013-02-06 08:50:00,54.7,46.9,30.01,ESE,123,0.0,0.0,75,0.00,,---,0.00,VWS V12.07,2013-02-06 16:50:00,
2013-02-06 08:55:00,54.8,46.3,30.01,ESE,123,0.0,1.0,73,0.00,,---,0.00,VWS V12.07,2013-02-06 16:55:00,
2013-02-06 09:00:00,55.1,46.6,30.01,ESE,123,0.0,2.0,73,0.00,,---,0.00,VWS V12.07,2013-02-06 17:00:00,
2013-02-06 09:05:00,55.1,46.2,30.01,ESE,123,0.0,1.0,72,0.00,,---,0.00,VWS V12.07,2013-02-06 17:05:00,
2013-02-06 09:15:00,56.3,46.7,30.02,ESE,123,0.0,0.0,70,0.00,,---,0.00,VWS V12.07,2013-02-06 17:15:00,
2013-02-06 09:20:00,57.6,47.1,30.02,ESE,123,2.0,2.0,68,0.00,,---,0.00,VWS V12.07,2013-02-06 17:20:00,
2013-02-06 09:25:00,58.6,47.3,30.02,SSE,165,1.0,2.0,66,0.00,,---,0.00,VWS V12.07,2013-02-06 17:25:00,
2013-02-06 09:30:00,58.4,46.7,30.02,SSE,165,0.0,1.0,65,0.00,,---,0.00,VWS V12.07,2013-02-06 17:30:00,
2013-02-06 09:35:00,58.4,46.7,30.02,SSE,165,1.0,2.0,65,0.00,,---,0.00,VWS V12.07,2013-02-06 17:35:00,
2013-02-06 09:40:00,58.7,47.0,30.02,WSW,254,1.0,4.0,65,0.00,,---,0.00,VWS V12.07,2013-02-06 17:40:00,
2013-02-06 09:50:00,58.6,45.6,30.02,SW,221,0.0,2.0,62,0.00,,---,0.00,VWS V12.07,2013-02-06 17:50:00,
2013-02-06 09:55:00,57.6,45.5,30.02,SE,137,5.0,6.0,64,0.00,,---,0.00,VWS V12.07,2013-02-06 17:55:00,
2013-02-06 10:00:00,57.0,45.4,30.02,SE,128,0.0,1.0,65,0.00,,---,0.00,VWS V12.07,2013-02-06 18:00:00,
2013-02-06 10:10:00,57.0,45.4,30.03,SE,128,0.0,0.0,65,0.00,,---,0.00,VWS V12.07,2013-02-06 18:10:00,
2013-02-06 10:15:00,56.9,44.5,30.03,SE,128,0.0,0.0,63,0.00,,---,0.00,VWS V12.07,2013-02-06 18:15:00,
2013-02-06 10:20:00,57.6,44.7,30.03,SE,128,0.0,1.0,62,0.00,,---,0.00,VWS V12.07,2013-02-06 18:20:00,
2013-02-06 10:30:00,59.0,43.3,30.03,West,261,3.0,4.0,56,0.00,,---,0.00,VWS V12.07,2013-02-06 18:30:00,
2013-02-06 10:40:00,60.2,44.5,30.03,West,267,4.0,5.0,56,0.00,,---,0.00,VWS V12.07,2013-02-06 18:40:00,
2013-02-06 10:45:00,60.1,44.8,30.03,NNW,344,4.0,5.0,57,0.00,,---,0.00,VWS V12.07,2013-02-06 18:45:00,
2013-02-06 10:55:00,60.5,45.2,30.02,WSW,252,5.0,7.0,57,0.00,,---,0.00,VWS V12.07,2013-02-06 18:55:00,
2013-02-06 11:05:00,60.1,45.3,30.02,West,268,1.0,7.0,58,0.00,,---,0.00,VWS V12.07,2013-02-06 19:05:00,
2013-02-06 11:10:00,59.8,46.3,30.02,WNW,282,3.0,6.0,61,0.00,,---,0.00,VWS V12.07,2013-02-06 19:10:00,
2013-02-06 11:20:00,60.2,46.3,30.02,West,261,5.0,6.0,60,0.00,,---,0.00,VWS V12.07,2013-02-06 19:20:00,
2013-02-06 11:25:00,60.2,47.2,30.02,NNW,340,5.0,7.0,62,0.00,,---,0.00,VWS V12.07,2013-02-06 19:25:00,
2013-02-06 11:35:00,60.1,47.0,30.02,WSW,254,4.0,6.0,62,0.00,,---,0.00,VWS V12.07,2013-02-06 19:35:00,
2013-02-06 11:40:00,60.2,46.7,30.02,WSW,254,4.0,6.0,61,0.00,,---,0.00,VWS V12.07,2013-02-06 19:40:00,
2013-02-06 11:45:00,60.5,46.1,30.02,NW,309,6.0,9.0,59,0.00,,---,0.00,VWS V12.07,2013-02-06 19:45:00,
2013-02-06 11:50:00,60.7,46.8,30.02,WSW,252,4.0,6.0,60,0.00,,---,0.00,VWS V12.07,2013-02-06 19:50:00,
2013-02-06 12:00:00,60.7,46.8,30.01,North,350,6.0,7.0,60,0.00,,---,0.00,VWS V12.07,2013-02-06 20:00:00,
2013-02-06 12:05:00,61.6,48.0,30.01,WNW,303,4.0,5.0,61,0.00,,---,0.00,VWS V12.07,2013-02-06 20:05:00,
2013-02-06 12:10:00,61.3,46.9,30.01,WSW,254,7.0,8.0,59,0.00,,---,0.00,VWS V12.07,2013-02-06 20:10:00,
2013-02-06 12:15:00,59.8,46.3,30.01,NW,304,1.0,9.0,61,0.00,,---,0.00,VWS V12.07,2013-02-06 20:15:00,
2013-02-06 12:25:00,60.1,46.6,30.01,West,279,4.0,8.0,61,0.00,,---,0.00,VWS V12.07,2013-02-06 20:25:00,
2013-02-06 12:35:00,59.6,46.2,30.01,West,264,3.0,10.0,61,0.00,,---,0.00,VWS V12.07,2013-02-06 20:35:00,
2013-02-06 12:40:00,60.4,47.8,30.00,WSW,254,4.0,5.0,63,0.00,,---,0.00,VWS V12.07,2013-02-06 20:40:00,
2013-02-06 12:45:00,60.4,46.0,30.00,WNW,292,0.0,5.0,59,0.00,,---,0.00,VWS V12.07,2013-02-06 20:45:00,
2013-02-06 12:50:00,61.2,47.2,30.00,West,259,4.0,10.0,60,0.00,,---,0.00,VWS V12.07,2013-02-06 20:50:00,
2013-02-06 12:55:00,62.0,48.0,29.99,WNW,300,5.0,6.0,60,0.00,,---,0.00,VWS V12.07,2013-02-06 20:55:00,
2013-02-06 13:05:00,61.0,47.0,29.99,WSW,240,4.0,9.0,60,0.00,,---,0.00,VWS V12.07,2013-02-06 21:05:00,
2013-02-06 13:10:00,61.3,46.4,29.98,North,355,4.0,8.0,58,0.00,,---,0.00,VWS V12.07,2013-02-06 21:10:00,
2013-02-06 13:15:00,61.0,46.1,29.98,North,5,0.0,6.0,58,0.00,,---,0.00,VWS V12.07,2013-02-06 21:15:00,
2013-02-06 13:20:00,60.7,46.8,29.98,WSW,247,2.0,7.0,60,0.00,,---,0.00,VWS V12.07,2013-02-06 21:20:00,
2013-02-06 13:25:00,60.7,46.8,29.98,WSW,257,2.0,9.0,60,0.00,,---,0.00,VWS V12.07,2013-02-06 21:25:00,
2013-02-06 13:30:00,61.3,46.9,29.98,WNW,285,6.0,9.0,59,0.00,,---,0.00,VWS V12.07,2013-02-06 21:30:00,
2013-02-06 13:35:00,62.1,47.6,29.98,West,275,1.0,5.0,59,0.00,,---,0.00,VWS V12.07,2013-02-06 21:35:00,
2013-02-06 13:40:00,61.8,46.4,29.98,SW,223,2.0,7.0,57,0.00,,---,0.00,VWS V12.07,2013-02-06 21:40:00,
2013-02-06 13:45:00,62.1,46.7,29.98,West,274,3.0,8.0,57,0.00,,---,0.00,VWS V12.07,2013-02-06 21:45:00,
2013-02-06 13:50:00,62.3,47.3,29.98,North,355,4.0,7.0,58,0.00,,---,0.00,VWS V12.07,2013-02-06 21:50:00,
2013-02-06 13:55:00,62.1,46.2,29.98,North,355,4.0,6.0,56,0.00,,---,0.00,VWS V12.07,2013-02-06 21:55:00,
2013-02-06 14:00:00,62.7,47.3,29.98,WNW,298,5.0,7.0,57,0.00,,---,0.00,VWS V12.07,2013-02-06 22:00:00,
2013-02-06 14:05:00,62.3,46.0,29.98,West,269,3.0,9.0,55,0.00,,---,0.00,VWS V12.07,2013-02-06 22:05:00,
2013-02-06 14:15:00,62.4,46.5,29.98,NNW,327,5.0,6.0,56,0.00,,---,0.00,VWS V12.07,2013-02-06 22:15:00,
2013-02-06 14:20:00,62.6,46.2,29.98,WSW,250,4.0,6.0,55,0.00,,---,0.00,VWS V12.07,2013-02-06 22:20:00,
2013-02-06 14:25:00,62.1,45.8,29.98,West,278,6.0,8.0,55,0.00,,---,0.00,VWS V12.07,2013-02-06 22:25:00,
2013-02-06 14:30:00,62.3,46.4,29.98,West,280,5.0,6.0,56,0.00,,---,0.00,VWS V12.07,2013-02-06 22:30:00,
2013-02-06 14:35:00,62.3,46.4,29.98,WSW,251,5.0,11.0,56,0.00,,---,0.00,VWS V12.07,2013-02-06 22:35:00,
2013-02-06 14:45:00,62.3,46.4,29.98,NW,312,5.0,6.0,56,0.00,,---,0.00,VWS V12.07,2013-02-06 22:45:00,
2013-02-06 14:50:00,62.1,46.7,29.98,WNW,287,1.0,8.0,57,0.00,,---,0.00,VWS V12.07,2013-02-06 22:50:00,
2013-02-06 14:55:00,62.0,46.6,29.99,WSW,247,3.0,6.0,57,0.00,,---,0.00,VWS V12.07,2013-02-06 22:55:00,
2013-02-06 15:00:00,61.6,46.7,29.99,NW,305,6.0,8.0,58,0.00,,---,0.00,VWS V12.07,2013-02-06 23:00:00,
2013-02-06 15:05:00,61.2,46.3,29.99,WSW,244,0.0,10.0,58,0.00,,---,0.00,VWS V12.07,2013-02-06 23:05:00,
2013-02-06 15:15:00,61.0,47.0,29.99,WNW,290,5.0,6.0,60,0.00,,---,0.00,VWS V12.07,2013-02-06 23:15:00,
2013-02-06 15:20:00,60.9,46.9,29.99,WNW,291,5.0,7.0,60,0.00,,---,0.00,VWS V12.07,2013-02-06 23:20:00,
2013-02-06 15:25:00,60.7,46.8,29.99,WNW,287,4.0,6.0,60,0.00,,---,0.00,VWS V12.07,2013-02-06 23:25:00,
2013-02-06 15:30:00,60.5,46.6,29.99,North,355,5.0,8.0,60,0.00,,---,0.00,VWS V12.07,2013-02-06 23:30:00,
2013-02-06 15:40:00,60.7,47.2,29.99,NW,307,2.0,6.0,61,0.00,,---,0.00,VWS V12.07,2013-02-06 23:40:00,
2013-02-06 15:50:00,60.9,46.9,29.99,WSW,240,6.0,6.0,60,0.00,,---,0.00,VWS V12.07,2013-02-06 23:50:00,
2013-02-06 15:55:00,61.0,47.5,29.98,West,277,2.0,6.0,61,0.00,,---,0.00,VWS V12.07,2013-02-06 23:55:00,
2013-02-06 16:00:00,61.0,47.0,29.98,WSW,242,2.0,8.0,60,0.00,,---,0.00,VWS V12.07,2013-02-07 00:00:00,
2013-02-06 16:10:00,61.0,47.0,29.99,NW,315,1.0,6.0,60,0.00,,---,0.00,VWS V12.07,2013-02-07 00:10:00,
2013-02-06 16:20:00,60.7,46.8,29.99,WSW,246,3.0,5.0,60,0.00,,---,0.00,VWS V12.07,2013-02-07 00:20:00,
2013-02-06 16:30:00,60.5,46.6,29.99,WSW,239,1.0,6.0,60,0.00,,---,0.00,VWS V12.07,2013-02-07 00:30:00,
2013-02-06 16:40:00,60.2,46.7,29.99,SW,219,4.0,4.0,61,0.00,,---,0.00,VWS V12.07,2013-02-07 00:40:00,
2013-02-06 16:45:00,60.1,46.6,29.99,WSW,248,1.0,5.0,61,0.00,,---,0.00,VWS V12.07,2013-02-07 00:45:00,
2013-02-06 16:55:00,59.8,46.8,30.00,WSW,243,2.0,5.0,62,0.00,,---,0.00,VWS V12.07,2013-02-07 00:55:00,
2013-02-06 17:00:00,59.5,46.5,30.00,WSW,242,2.0,4.0,62,0.00,,---,0.00,VWS V12.07,2013-02-07 01:00:00,
2013-02-06 17:05:00,59.3,46.3,30.00,West,259,1.0,3.0,62,0.00,,---,0.00,VWS V12.07,2013-02-07 01:05:00,
2013-02-06 17:10:00,59.0,46.0,30.00,WSW,256,1.0,4.0,62,0.00,,---,0.00,VWS V12.07,2013-02-07 01:10:00,
2013-02-06 17:15:00,58.7,45.7,30.00,WSW,252,0.0,4.0,62,0.00,,---,0.00,VWS V12.07,2013-02-07 01:15:00,
2013-02-06 17:20:00,58.4,45.9,30.00,WSW,252,1.0,1.0,63,0.00,,---,0.00,VWS V12.07,2013-02-07 01:20:00,
2013-02-06 17:25:00,58.3,45.8,30.00,West,270,0.0,4.0,63,0.00,,---,0.00,VWS V12.07,2013-02-07 01:25:00,
2013-02-06 17:35:00,57.8,45.3,30.00,West,270,0.0,1.0,63,0.00,,---,0.00,VWS V12.07,2013-02-07 01:35:00,
2013-02-06 17:40:00,57.6,45.5,30.00,West,270,0.0,2.0,64,0.00,,---,0.00,VWS V12.07,2013-02-07 01:40:00,
2013-02-06 17:45:00,57.3,45.2,30.00,West,270,0.0,0.0,64,0.00,,---,0.00,VWS V12.07,2013-02-07 01:45:00,
2013-02-06 17:50:00,57.2,45.2,30.00,West,270,0.0,0.0,64,0.00,,---,0.00,VWS V12.07,2013-02-07 01:50:00,
2013-02-06 17:55:00,56.9,44.9,30.01,West,270,0.0,0.0,64,0.00,,---,0.00,VWS V12.07,2013-02-07 01:55:00,
2013-02-06 18:00:00,56.7,45.1,30.01,West,270,0.0,0.0,65,0.00,,---,0.00,VWS V12.07,2013-02-07 02:00:00,
2013-02-06 18:05:00,56.5,44.9,30.01,West,270,0.0,0.0,65,0.00,,---,0.00,VWS V12.07,2013-02-07 02:05:00,
2013-02-06 18:10:00,56.0,44.4,30.01,West,270,0.0,0.0,65,0.00,,---,0.00,VWS V12.07,2013-02-07 02:10:00,
2013-02-06 18:20:00,55.4,43.8,30.01,West,270,0.0,1.0,65,0.00,,---,0.00,VWS V12.07,2013-02-07 02:20:00,
2013-02-06 18:25:00,55.0,43.9,30.01,West,270,0.0,0.0,66,0.00,,---,0.00,VWS V12.07,2013-02-07 02:25:00,
2013-02-06 18:30:00,54.7,43.6,30.01,West,270,0.0,0.0,66,0.00,,---,0.00,VWS V12.07,2013-02-07 02:30:00,
2013-02-06 18:40:00,54.1,43.4,30.02,West,270,0.0,1.0,67,0.00,,---,0.00,VWS V12.07,2013-02-07 02:40:00,
2013-02-06 18:45:00,53.8,43.5,30.02,West,270,0.0,1.0,68,0.00,,---,0.00,VWS V12.07,2013-02-07 02:45:00,
2013-02-06 18:50:00,53.6,43.7,30.02,West,270,0.0,1.0,69,0.00,,---,0.00,VWS V12.07,2013-02-07 02:50:00,
2013-02-06 18:55:00,53.3,43.4,30.02,West,270,0.0,1.0,69,0.00,,---,0.00,VWS V12.07,2013-02-07 02:55:00,
2013-02-06 19:00:00,53.2,43.7,30.02,West,270,0.0,0.0,70,0.00,,---,0.00,VWS V12.07,2013-02-07 03:00:00,
2013-02-06 19:05:00,52.9,43.8,30.02,West,270,0.0,0.0,71,0.00,,---,0.00,VWS V12.07,2013-02-07 03:05:00,
2013-02-06 19:10:00,52.8,43.7,30.03,West,270,0.0,0.0,71,0.00,,---,0.00,VWS V12.07,2013-02-07 03:10:00,
2013-02-06 19:15:00,52.6,43.5,30.03,West,270,0.0,0.0,71,0.00,,---,0.00,VWS V12.07,2013-02-07 03:15:00,
2013-02-06 19:25:00,52.2,43.8,30.03,West,270,0.0,0.0,73,0.00,,---,0.00,VWS V12.07,2013-02-07 03:25:00,
2013-02-06 19:30:00,52.0,43.6,30.03,West,270,0.0,0.0,73,0.00,,---,0.00,VWS V12.07,2013-02-07 03:30:00,
2013-02-06 19:35:00,51.9,43.5,30.03,West,270,0.0,0.0,73,0.00,,---,0.00,VWS V12.07,2013-02-07 03:35:00,
2013-02-06 19:45:00,51.4,43.4,30.03,West,270,0.0,0.0,74,0.00,,---,0.00,VWS V12.07,2013-02-07 03:45:00,
2013-02-06 19:55:00,51.1,43.5,30.04,West,270,0.0,0.0,75,0.00,,---,0.00,VWS V12.07,2013-02-07 03:55:00,
2013-02-06 20:00:00,51.0,43.4,30.04,West,270,0.0,0.0,75,0.00,,---,0.00,VWS V12.07,2013-02-07 04:00:00,
2013-02-06 20:05:00,50.7,43.1,30.04,West,270,0.0,0.0,75,0.00,,---,0.00,VWS V12.07,2013-02-07 04:05:00,
2013-02-06 20:10:00,50.5,42.9,30.04,West,270,0.0,0.0,75,0.00,,---,0.00,VWS V12.07,2013-02-07 04:10:00,
2013-02-06 20:15:00,50.2,42.6,30.04,West,270,0.0,0.0,75,0.00,,---,0.00,VWS V12.07,2013-02-07 04:15:00,
2013-02-06 20:20:00,50.1,42.5,30.04,West,270,0.0,0.0,75,0.00,,---,0.00,VWS V12.07,2013-02-07 04:20:00,
2013-02-06 20:25:00,49.8,42.5,30.05,West,270,0.0,0.0,76,0.00,,---,0.00,VWS V12.07,2013-02-07 04:25:00,
2013-02-06 20:35:00,49.5,42.3,30.05,West,270,0.0,0.0,76,0.00,,---,0.00,VWS V12.07,2013-02-07 04:35:00,
2013-02-06 20:40:00,49.4,42.2,30.05,West,270,0.0,0.0,76,0.00,,---,0.00,VWS V12.07,2013-02-07 04:40:00,
2013-02-06 20:45:00,49.1,42.2,30.05,West,270,0.0,0.0,77,0.00,,---,0.00,VWS V12.07,2013-02-07 04:45:00,
2013-02-06 20:50:00,48.9,42.0,30.05,West,270,0.0,1.0,77,0.00,,---,0.00,VWS V12.07,2013-02-07 04:50:00,
2013-02-06 20:55:00,48.8,41.9,30.06,West,270,0.0,0.0,77,0.00,,---,0.00,VWS V12.07,2013-02-07 04:55:00,
2013-02-06 21:00:00,48.6,41.7,30.06,West,270,0.0,0.0,77,0.00,,---,0.00,VWS V12.07,2013-02-07 05:00:00,
2013-02-06 21:05:00,48.5,41.6,30.06,West,270,0.0,0.0,77,0.00,,---,0.00,VWS V12.07,2013-02-07 05:05:00,
2013-02-06 21:10:00,48.3,41.4,30.06,West,270,0.0,0.0,77,0.00,,---,0.00,VWS V12.07,2013-02-07 05:10:00,
2013-02-06 21:15:00,48.2,41.3,30.06,West,270,0.0,0.0,77,0.00,,---,0.00,VWS V12.07,2013-02-07 05:15:00,
2013-02-06 21:20:00,48.0,41.5,30.06,West,270,0.0,0.0,78,0.00,,---,0.00,VWS V12.07,2013-02-07 05:20:00,
2013-02-06 21:25:00,47.9,41.4,30.06,West,270,0.0,0.0,78,0.00,,---,0.00,VWS V12.07,2013-02-07 05:25:00,
2013-02-06 21:30:00,47.7,41.2,30.06,West,270,0.0,0.0,78,0.00,,---,0.00,VWS V12.07,2013-02-07 05:30:00,
2013-02-06 21:35:00,47.6,41.1,30.06,West,270,0.0,0.0,78,0.00,,---,0.00,VWS V12.07,2013-02-07 05:35:00,
2013-02-06 21:45:00,47.3,40.8,30.06,West,270,0.0,0.0,78,0.00,,---,0.00,VWS V12.07,2013-02-07 05:45:00,
2013-02-06 21:50:00,47.1,40.6,30.06,West,270,0.0,0.0,78,0.00,,---,0.00,VWS V12.07,2013-02-07 05:50:00,
2013-02-06 21:55:00,47.0,40.5,30.06,West,270,0.0,0.0,78,0.00,,---,0.00,VWS V12.07,2013-02-07 05:55:00,
2013-02-06 22:00:00,46.8,40.6,30.06,West,270,0.0,0.0,79,0.00,,---,0.00,VWS V12.07,2013-02-07 06:00:00,
2013-02-06 22:05:00,46.7,40.5,30.06,West,270,0.0,0.0,79,0.00,,---,0.00,VWS V12.07,2013-02-07 06:05:00,
2013-02-06 22:10:00,46.5,40.3,30.06,West,270,0.0,0.0,79,0.00,,---,0.00,VWS V12.07,2013-02-07 06:10:00,
2013-02-06 22:20:00,46.2,40.1,30.06,West,270,0.0,0.0,79,0.00,,---,0.00,VWS V12.07,2013-02-07 06:20:00,
2013-02-06 22:25:00,46.2,40.1,30.06,West,270,0.0,0.0,79,0.00,,---,0.00,VWS V12.07,2013-02-07 06:25:00,
2013-02-06 22:30:00,46.1,40.0,30.06,West,270,0.0,0.0,79,0.00,,---,0.00,VWS V12.07,2013-02-07 06:30:00,
2013-02-06 22:35:00,46.0,40.2,30.06,West,270,0.0,0.0,80,0.00,,---,0.00,VWS V12.07,2013-02-07 06:35:00,
2013-02-06 22:40:00,45.8,40.0,30.06,West,270,0.0,0.0,80,0.00,,---,0.00,VWS V12.07,2013-02-07 06:40:00,
2013-02-06 22:45:00,45.7,39.9,30.06,West,270,0.0,0.0,80,0.00,,---,0.00,VWS V12.07,2013-02-07 06:45:00,
2013-02-06 22:50:00,45.4,39.6,30.06,West,270,0.0,0.0,80,0.00,,---,0.00,VWS V12.07,2013-02-07 06:50:00,
2013-02-06 22:55:00,45.2,39.4,30.07,West,270,0.0,0.0,80,0.00,,---,0.00,VWS V12.07,2013-02-07 06:55:00,
2013-02-06 23:05:00,44.9,39.1,30.07,West,270,0.0,0.0,80,0.00,,---,0.00,VWS V12.07,2013-02-07 07:05:00,
2013-02-06 23:15:00,44.8,39.0,30.07,West,270,0.0,0.0,80,0.00,,---,0.00,VWS V12.07,2013-02-07 07:15:00,
2013-02-06 23:20:00,44.6,38.8,30.07,West,270,0.0,0.0,80,0.00,,---,0.00,VWS V12.07,2013-02-07 07:20:00,
2013-02-06 23:30:00,44.3,38.5,30.07,West,270,0.0,0.0,80,0.00,,---,0.00,VWS V12.07,2013-02-07 07:30:00,
2013-02-06 23:35:00,44.3,38.8,30.07,West,270,1.0,1.0,81,0.00,,---,0.00,VWS V12.07,2013-02-07 07:35:00,
2013-02-06 23:40:00,44.2,38.8,30.07,West,270,0.0,0.0,81,0.00,,---,0.00,VWS V12.07,2013-02-07 07:40:00,
2013-02-06 23:45:00,44.1,38.7,30.07,West,270,0.0,0.0,81,0.00,,---,0.00,VWS V12.07,2013-02-07 07:45:00,
2013-02-06 23:55:00,43.9,38.5,30.07,West,270,0.0,0.0,81,0.00,,---,0.00,VWS V12.07,2013-02-07 07:55:00,